カタログに戻る

SL-16 DEB

運用中LEO
NORAD 22613·DEBRIS·🇷🇺 Russia

打ち上げ Mar 26, 1993 から Baikonur Cosmodrome

Loading…

次のパス (今後24時間)

TLE

最新Source: Space-Track

元期: Sep 14, 2026, 12:23 UTC

1 22613U 93016X   26257.51620818  .00000270  00000-0  27259-3 0  9993
2 22613  70.9982  86.2446 0192707  37.2541 344.5958 13.77673655677276

AllMySatでSL-16 DEBをリアルタイム追跡

Download on the App Store